Back to catalog

STARLINK-32815

AliveCommunicationsVLEO
NORAD 62956·PAYLOAD·🇺🇸 United States

Launched Feb 11, 2025 from Vandenberg Space Force Base

Loading…

Next Passes (next 24 hours)

TLE

FreshSource: CelesTrak SupGP

Epoch: Sep 14, 2026, 21:22 UTC

1 62956C 25029J   26257.89076389  .00034134  00000+0  10093-2 0  2574
2 62956  53.1590  67.9181 0001266  83.8799 352.9167 15.34347411    11

Track STARLINK-32815 in real time with AllMySat

Download on the App Store